Wind_Speed
33 28 30 31 32 33 34 34 34 37 37 35 35 36 36 36 37 39 40 41 40 41 43 44 44 45 45 45 44 45 47 46 47 44 45 47 50 51 55 56 60 64 62
30 27 30 31 33 34 36 37 37 39 38 39 40 42 43 44 43 43 43 44 45 46 46 46 47 47 47 47 46 46 48 49 48 47 47 49 51 54 55 55 51 50 63
32 29 31 33 34 36 37 38 39 39 40 41 44 46 48 47 46 47 47 48 48 49 50 50 53 53 51 50 50 49 50 49 48 49 51 52 52 55 53 51 45 43 50
33 33 35 36 35 36 39 41 41 40 41 44 46 48 50 50 50 51 51 52 53 53 54 54 54 56 54 52 52 52 51 49 49 51 52 54 53 57 47 46 43 46 45
35 35 35 36 36 39 41 43 44 45 47 48 50 52 52 52 52 53 54 55 55 56 56 54 54 54 53 54 54 54 53 51 52 51 50 52 54 55 49 40 40 40 42
37 38 38 40 40 41 44 46 48 49 51 52 54 54 55 55 56 56 56 57 57 56 55 55 56 56 56 57 56 55 54 53 53 52 51 50 52 50 48 44 39 41 40
46 45 43 43 43 44 47 49 50 52 53 55 56 58 59 60 59 58 58 58 58 57 57 58 59 59 58 58 58 58 56 54 53 51 51 50 51 50 47 45 39 40 38
50 49 48 47 48 50 52 53 55 57 58 59 60 61 59 58 58 60 61 62 62 63 65 63 62 61 58 58 59 58 55 55 54 51 50 49 50 50 46 43 44 43 46
55 54 54 55 55 54 54 54 55 56 57 58 59 60 61 62 64 66 66 65 63 63 63 62 61 61 60 62 61 59 57 56 54 52 50 50 50 50 46 45 43 45 45
49 49 48 48 49 51 52 53 55 56 57 58 58 59 60 62 64 66 68 70 68 68 66 66 63 66 67 64 62 61 59 58 54 52 50 51 51 50 47 46 41 44 45
48 50 53 55 55 56 56 57 56 56 57 59 62 63 65 67 68 68 69 69 69 69 69 68 70 65 65 66 64 63 62 59 56 53 52 51 51 51 49 45 42 40 42
55 54 54 55 54 55 55 56 57 59 57 56 57 58 57 58 60 60 61 63 66 67 66 66 66 70 67 66 65 64 63 62 58 55 54 53 53 52 51 47 44 42 43
52 50 49 49 48 48 49 49 50 52 52 52 53 54 55 57 60 64 67 69 68 67 67 67 64 64 63 61 61 60 60 58 57 55 54 54 54 53 54 51 45 45 44
50 48 45 45 46 49 52 53 52 50 48 49 47 48 52 53 55 58 61 64 63 64 63 62 60 59 59 59 58 58 58 58 57 55 54 55 55 55 56 54 50 47 48
50 50 49 51 52 48 47 46 47 49 51 53 53 52 53 56 59 60 59 60 60 57 55 55 57 58 58 57 58 56 57 57 57 57 56 55 56 57 57 57 52 50 49
49 50 47 47 43 44 41 43 45 47 49 52 56 58 59 60 61 66 65 65 63 61 62 62 62 63 62 61 61 58 58 58 58 57 57 57 57 59 59 60 58 53 51
41 42 45 44 44 43 44 46 48 50 51 55 57 59 62 63 65 64 64 63 64 63 64 64 66 66 67 68 69 67 66 65 65 63 61 59 61 61 62 63 62 57 55
43 46 45 45 44 45 46 48 48 49 51 53 55 57 57 58 58 59 59 59 60 61 62 62 64 64 66 68 70 72 73 74 75 72 69 66 65 68 67 66 65 61 58
43 42 42 41 40 41 41 42 44 48 51 53 53 55 57 55 54 54 54 53 54 56 57 57 58 56 54 54 54 56 58 60 65 66 73 74 72 72 73 70 67 64 62
34 33 34 34 36 39 42 44 46 47 46 47 48 47 46 45 44 42 43 44 46 48 49 50 51 49 46 45 43 41 39 38 40 42 51 61 70 71 74 72 69 64 64
28 30 32 35 37 39 41 42 41 43 42 40 38 38 36 35 36 38 40 41 43 45 46 48 47 46 43 41 40 38 37 35 34 34 35 38 44 53 63 74 74 68 65
32 32 35 35 38 36 34 36 36 34 32 29 29 29 31 32 35 36 39 41 44 47 46 45 43 43 42 41 40 40 39 38 37 36 36 35 34 35 43 53 64 66 63
34 34 34 33 28 31 33 28 26 23 22 23 23 24 26 29 33 36 39 42 44 45 45 44 41 40 40 41 40 39 39 39 36 36 38 38 40 33 31 36 45 49 50
33 31 25 23 28 26 22 19 16 17 15 16 18 22 25 29 33 36 38 41 42 42 43 41 39 38 39 41 42 40 38 38 38 33 31 29 32 32 27 32 40 43 45
26 21 23 25 22 18 13 11 10 9 11 15 19 23 27 31 34 37 39 41 41 42 44 43 40 35 34 37 37 40 37 35 34 31 29 26 27 21 19 19 26 36 39
21 24 23 17 15 10 8 6 4 8 11 16 20 24 28 32 35 39 42 43 44 45 46 47 46 42 40 38 32 29 34 34 30 29 27 26 25 20 17 16 20 26 29
Wind_Direction
269 270 266 264 264 263 266 266 267 271 276 279 282 285 287 287 286 286 287 287 287 288 288 288 286 286 287 287 288 288 287 284 283 283 289 289 289 290 288 283 279 263 262
273 267 264 264 265 265 267 267 267 271 274 279 282 284 286 287 286 286 287 288 289 290 290 290 290 289 287 285 286 284 284 283 280 282 289 290 290 289 297 292 278 269 254
269 263 263 265 266 264 263 264 265 270 271 274 278 280 283 283 284 286 288 289 289 288 289 289 289 289 288 287 288 285 283 283 282 286 286 287 291 294 302 292 271 265 258
271 270 268 267 265 262 261 263 265 268 269 272 276 279 281 283 285 285 286 286 288 289 291 291 290 290 287 286 286 284 284 283 284 284 284 288 293 296 304 291 270 262 263
271 272 270 269 268 265 265 266 267 269 272 274 276 278 279 280 282 284 286 287 288 288 288 288 289 287 285 285 285 283 282 284 286 285 283 288 293 298 301 295 267 267 259
273 275 276 275 274 272 271 270 271 272 274 275 277 278 280 282 285 286 286 287 287 287 288 288 288 285 285 285 284 283 284 286 287 286 282 286 290 295 299 298 269 262 270
275 275 274 273 274 273 274 274 275 276 277 279 281 282 283 285 287 287 287 286 287 288 288 290 288 286 286 286 286 285 286 286 286 282 280 283 287 290 294 297 272 266 267
272 274 275 275 274 274 275 276 276 277 278 279 280 281 283 285 286 285 286 286 287 288 289 289 286 284 285 286 285 284 282 284 283 277 276 280 283 286 290 294 277 265 266
275 274 274 275 276 276 275 275 276 277 278 279 281 282 283 284 286 287 288 289 290 290 289 288 286 282 286 288 286 283 280 282 279 275 274 278 278 281 289 289 287 265 267
272 272 272 271 272 273 274 275 276 278 279 280 281 283 284 285 287 288 290 290 290 289 288 287 287 288 287 285 284 280 279 280 276 274 272 275 275 279 282 286 290 273 261
270 270 273 276 276 276 277 278 278 279 280 284 287 287 288 288 290 291 290 290 290 290 287 286 286 284 285 284 281 279 277 278 276 273 271 273 272 276 276 280 283 280 270
278 277 277 276 278 278 277 278 280 284 287 288 289 290 290 291 291 290 290 291 291 291 290 287 283 284 285 283 282 280 278 277 275 273 271 272 270 272 273 274 277 281 275
277 279 277 278 280 283 284 284 284 283 283 286 289 290 290 290 291 290 290 290 290 289 288 287 284 281 281 280 281 280 277 274 271 271 271 270 269 270 272 271 272 271 274
274 277 282 284 284 286 286 287 287 287 288 290 287 297 298 297 297 296 295 292 290 288 286 284 283 283 282 281 280 278 276 274 273 272 270 269 269 269 269 269 269 271 272
278 282 288 288 289 289 286 285 284 286 287 291 295 295 297 295 296 296 296 296 291 291 288 289 289 286 284 283 280 278 278 276 274 273 272 269 269 269 269 268 267 269 271
283 287 287 286 284 283 282 283 287 289 291 292 292 292 296 297 296 294 297 294 292 291 289 288 286 287 287 285 284 282 280 277 276 274 273 273 271 269 268 268 266 267 270
279 284 282 281 280 280 283 287 288 290 294 293 294 294 295 297 297 298 298 297 296 295 293 291 289 288 286 284 283 283 280 278 277 275 274 273 272 268 267 267 266 267 268
274 275 276 280 279 282 286 289 291 294 294 294 294 295 298 298 299 298 298 297 297 297 295 294 292 289 288 286 284 282 279 275 273 271 272 270 270 270 267 264 264 264 266
270 273 275 277 282 287 291 293 293 291 292 293 296 298 299 299 300 301 302 303 303 301 299 297 294 293 295 295 293 287 283 281 278 277 272 267 266 265 264 262 260 261 263
267 270 274 281 286 288 288 288 289 293 297 299 299 299 303 306 307 309 311 313 314 314 310 304 299 295 294 297 298 296 293 292 286 282 278 273 266 262 260 260 259 257 262
267 274 279 282 285 286 288 290 295 297 298 301 306 309 312 316 320 323 323 323 322 319 315 309 302 295 294 296 297 301 298 297 292 289 283 278 275 270 262 257 257 257 259
273 277 283 284 285 287 291 293 295 299 305 309 314 319 323 325 327 329 331 331 328 324 320 315 304 300 295 295 299 298 301 301 298 297 288 290 285 279 269 262 256 252 252
276 279 279 280 284 289 292 294 299 306 313 319 324 334 340 343 341 338 335 335 333 329 325 318 312 302 300 296 293 295 297 297 299 297 297 290 294 283 270 262 257 251 246
271 271 274 278 287 291 293 297 307 316 324 340 349 353 355 357 355 350 345 342 342 340 338 329 317 309 300 294 290 287 288 292 293 297 302 293 295 284 264 251 253 246 239
262 267 277 279 286 288 292 301 314 334 353 1 2 1 360 359 358 356 351 350 347 350 351 347 342 330 315 307 298 281 278 283 287 289 302 305 303 304 297 293 266 250 242
260 269 274 274 281 275 280 295 333 1 4 2 358 357 357 356 356 356 357 357 354 352 354 356 352 347 345 338 319 306 279 281 290 294 301 308 304 310 304 300 285 263 237
Height
5752 5755 5753 5754 5754 5753 5752 5751 5750 5749 5747 5748 5747 5747 5747 5746 5746 5745 5745 5743 5742 5741 5739 5737 5735 5733 5730 5728 5725 5724 5722 5719 5717 5716 5716 5715 5712 5710 5708 5705 5702 5702 5704
5745 5746 5745 5745 5745 5745 5744 5743 5742 5741 5740 5739 5739 5739 5738 5737 5736 5735 5734 5733 5732 5730 5728 5725 5723 5721 5718 5716 5714 5712 5711 5708 5704 5702 5701 5702 5700 5696 5692 5687 5682 5681 5685
5736 5737 5738 5737 5737 5737 5735 5735 5734 5733 5732 5731 5730 5730 5729 5727 5727 5725 5724 5722 5721 5719 5717 5715 5711 5708 5705 5703 5701 5699 5698 5697 5693 5689 5687 5686 5684 5682 5677 5668 5666 5667 5666
5729 5729 5730 5729 5729 5729 5728 5727 5725 5724 5723 5722 5721 5720 5719 5717 5716 5714 5713 5711 5709 5707 5704 5701 5697 5695 5692 5690 5688 5686 5685 5683 5681 5677 5674 5670 5668 5665 5667 5655 5652 5652 5653
5719 5720 5720 5720 5720 5719 5719 5718 5717 5716 5714 5713 5711 5709 5707 5705 5704 5702 5700 5698 5695 5693 5690 5688 5685 5683 5680 5677 5675 5674 5672 5670 5668 5664 5661 5657 5653 5649 5648 5648 5642 5641 5643
5710 5710 5711 5710 5710 5709 5708 5707 5706 5705 5703 5701 5699 5697 5695 5693 5691 5689 5687 5685 5682 5680 5677 5674 5671 5669 5668 5665 5662 5660 5658 5656 5654 5651 5648 5645 5640 5637 5633 5631 5631 5632 5633
5701 5699 5699 5698 5699 5698 5697 5695 5694 5693 5691 5688 5686 5684 5682 5679 5677 5675 5672 5670 5668 5665 5663 5661 5658 5655 5652 5650 5648 5646 5643 5641 5640 5637 5635 5632 5628 5625 5622 5618 5618 5619 5623
5689 5689 5689 5688 5687 5686 5684 5682 5681 5679 5677 5675 5672 5670 5668 5666 5663 5660 5657 5655 5652 5650 5648 5646 5643 5640 5637 5635 5632 5630 5627 5626 5624 5623 5621 5619 5616 5612 5610 5607 5605 5607 5610
5676 5676 5677 5676 5675 5673 5671 5670 5668 5666 5664 5662 5660 5658 5655 5651 5649 5646 5643 5640 5637 5635 5632 5629 5627 5624 5622 5619 5616 5614 5611 5610 5609 5607 5606 5604 5601 5599 5596 5595 5592 5591 5595
5663 5664 5664 5663 5662 5661 5660 5657 5655 5653 5651 5649 5646 5644 5641 5637 5634 5631 5628 5624 5621 5618 5614 5612 5609 5607 5605 5602 5600 5597 5595 5594 5593 5591 5590 5589 5586 5585 5583 5582 5580 5578 5579
5651 5651 5651 5650 5650 5648 5646 5645 5644 5642 5639 5636 5632 5629 5625 5622 5619 5615 5611 5607 5602 5599 5595 5592 5590 5587 5585 5583 5582 5581 5579 5577 5576 5573 5573 5572 5570 5570 5569 5568 5568 5566 5567
5637 5638 5638 5636 5635 5634 5633 5632 5630 5628 5625 5622 5619 5616 5612 5608 5603 5599 5594 5590 5586 5581 5577 5574 5570 5568 5565 5564 5563 5562 5559 5558 5558 5555 5555 5554 5554 5554 5553 5553 5554 5553 5553
5626 5626 5626 5625 5624 5623 5621 5620 5618 5615 5612 5609 5606 5603 5598 5593 5588 5584 5579 5574 5570 5565 5560 5557 5552 5549 5546 5544 5543 5542 5540 5538 5538 5537 5537 5536 5536 5537 5537 5538 5539 5540 5539
5615 5615 5615 5615 5614 5612 5610 5608 5605 5602 5599 5596 5592 5589 5584 5579 5574 5568 5563 5557 5552 5548 5544 5539 5535 5531 5529 5527 5525 5524 5522 5520 5519 5518 5517 5518 5517 5518 5519 5521 5522 5523 5524
5606 5607 5604 5603 5601 5599 5597 5595 5592 5589 5587 5583 5579 5575 5570 5565 5559 5554 5548 5542 5537 5533 5528 5523 5518 5514 5511 5508 5507 5505 5503 5501 5500 5499 5498 5498 5499 5499 5501 5502 5505 5505 5506
5595 5595 5594 5592 5590 5588 5586 5583 5580 5577 5574 5570 5565 5561 5556 5550 5545 5539 5534 5529 5522 5517 5512 5506 5501 5496 5492 5490 5488 5485 5484 5481 5480 5480 5479 5478 5478 5480 5482 5484 5486 5488 5488
5586 5586 5584 5582 5580 5578 5575 5573 5570 5566 5562 5558 5553 5548 5543 5537 5532 5525 5519 5512 5506 5500 5494 5488 5483 5476 5472 5470 5468 5464 5462 5461 5459 5458 5457 5457 5456 5458 5462 5464 5466 5468 5468
5576 5575 5573 5572 5570 5568 5565 5562 5559 5555 5551 5547 5541 5537 5531 5525 5518 5510 5503 5496 5489 5481 5475 5468 5462 5457 5451 5447 5443 5441 5438 5436 5435 5433 5433 5434 5435 5435 5440 5443 5446 5448 5450
5564 5564 5563 5562 5560 5558 5555 5552 5548 5545 5540 5535 5530 5525 5519 5511 5504 5497 5490 5482 5474 5466 5459 5451 5445 5440 5434 5428 5423 5421 5417 5413 5409 5405 5406 5408 5410 5411 5413 5419 5423 5426 5428
5555 5555 5555 5553 5551 5549 5546 5542 5538 5535 5530 5525 5520 5514 5507 5500 5494 5487 5479 5470 5461 5453 5444 5437 5430 5425 5421 5416 5410 5405 5400 5397 5392 5388 5384 5381 5382 5384 5387 5393 5398 5404 5406
5548 5547 5546 5544 5542 5539 5536 5533 5529 5525 5520 5516 5510 5505 5499 5493 5486 5478 5469 5461 5452 5443 5435 5426 5418 5412 5408 5403 5398 5392 5387 5383 5379 5374 5371 5366 5362 5361 5362 5366 5373 5379 5385
5540 5539 5537 5535 5533 5530 5527 5523 5520 5516 5512 5508 5504 5498 5493 5486 5479 5471 5462 5453 5444 5435 5425 5416 5408 5401 5395 5390 5386 5381 5376 5372 5367 5363 5358 5354 5350 5346 5344 5344 5348 5355 5362
5532 5531 5529 5527 5524 5522 5518 5516 5513 5510 5506 5502 5498 5493 5487 5481 5473 5465 5456 5447 5437 5427 5417 5407 5398 5391 5385 5380 5376 5371 5366 5361 5357 5352 5347 5343 5338 5333 5331 5331 5331 5337 5343
5524 5522 5520 5519 5517 5514 5512 5510 5507 5504 5502 5498 5493 5488 5483 5476 5468 5460 5451 5442 5432 5421 5410 5399 5389 5381 5374 5369 5364 5360 5357 5352 5348 5343 5339 5334 5328 5323 5320 5320 5320 5322 5326
5515 5514 5513 5512 5510 5508 5506 5505 5503 5501 5497 5494 5489 5484 5478 5471 5464 5456 5447 5437 5427 5416 5405 5393 5381 5373 5365 5357 5351 5347 5345 5343 5339 5335 5330 5325 5321 5315 5311 5308 5308 5309 5314
5507 5507 5506 5505 5504 5503 5502 5501 5499 5497 5494 5490 5485 5480 5474 5467 5460 5451 5442 5433 5422 5410 5399 5388 5376 5366 5356 5347 5340 5335 5333 5331 5329 5325 5321 5318 5313 5308 5304 5301 5298 5297 5301